Paducah, KY

5:08 AM CDT on July 28, 2017 (GMT -0500)
Barkley Regional

Weather History for KPAH - February, 2014

Change the Weather History Date:

Thursday, February 6, 2014

  Actual Average Record
Temperature  
Mean Temperature 14 °F 37 °F  
Max Temperature 20 °F 46 °F 71 °F (1938)
Min Temperature 7 °F 27 °F 1 °F (1978)
Degree Days  
Heating Degree Days 51 28  
Month to date heating degree days 218 172  
Since 1 July heating degree days 2955 2745  
Cooling Degree Days 0 0  
Month to date cooling degree days 0 0  
Year to date cooling degree days 0 0  
Moisture  
Dew Point 9 °F    
Average Humidity 75    
Maximum Humidity 80    
Minimum Humidity 70    
Precipitation  
Precipitation T in 0.14 in 2.05 in (1946)
Month to date precipitation 2.10 0.86  
Year to date precipitation 4.13 4.54  
Snow  
Snow T in 0.20 in 4.80 in (2003)
Month to date snowfall 6.2 0.8  
Since 1 July snowfall 12.5 6.1  
Snow Depth 5.00 in    
Sea Level Pressure  
Sea Level Pressure 30.53 in    
Wind  
Wind Speed 8 mph (North)    
Max Wind Speed 15 mph    
Max Gust Speed 18 mph    
Visibility 9 miles    
Events Snow    
T = Trace of Precipitation, MM = Missing Value Source: NWS Daily Summary

Daily Weather History Graph

Daily Weather History Graph

Search for Another Location

Airport or City:

Trip Planner

Search our weather history database for the weather conditions in past years. The results will help you decide how hot, cold, wet, or windy it might be!

Date:

Astronomy

Feb. 06, 2014 Rise Set
Actual Time 6:53 AM CST 5:25 PM CST
Civil Twilight 6:26 AM CST 5:52 PM CST
Nautical Twilight 5:55 AM CST 6:23 PM CST
Astronomical Twilight 5:24 AM CST 6:53 PM CST
Moon 10:57 AM CST (2/6) 12:08 AM CST (2/6)
Length of Visible Light 11h 26m
Length of Day
10h 32m
Waxing Crescent, 49% of the Moon is Illuminated
Feb 6
Waxing Crescent
Feb 6
First Quarter
Feb 14
Full
Feb 22
Last Quarter
Mar 1
New

Hourly Weather History & Observations

Time (CST) Temp. Windchill Dew Point Humidity Pressure Visibility Wind Dir Wind Speed Gust Speed Precip Events Conditions
12:53 AM 19.0 °F 7.5 °F 14.0 °F 81% 30.51 in 8.0 mi NNW 10.4 mph - N/A   Overcast
1:53 AM 19.0 °F 6.1 °F 14.0 °F 81% 30.50 in 10.0 mi North 12.7 mph - N/A   Overcast
2:53 AM 18.0 °F 6.1 °F 12.9 °F 81% 30.50 in 10.0 mi NNW 10.4 mph - N/A   Overcast
3:25 AM 18.0 °F 6.1 °F 12.0 °F 78% 30.48 in 10.0 mi North 10.4 mph - N/A   Overcast
3:50 AM 17.6 °F 10.7 °F 12.2 °F 79% 30.50 in 10.0 mi NNW 4.6 mph - N/A   Overcast
3:53 AM 18.0 °F 6.9 °F 12.9 °F 81% 30.51 in 10.0 mi North 9.2 mph - N/A   Overcast
4:51 AM 17.6 °F 4.3 °F 10.4 °F 73% 30.49 in 10.0 mi North 12.7 mph - N/A   Overcast
4:53 AM 17.1 °F 3.6 °F 10.0 °F 74% 30.52 in 10.0 mi North 12.7 mph - N/A   Overcast
5:45 AM 16.0 °F 3.6 °F 10.9 °F 81% 30.53 in 9.0 mi NNW 10.4 mph - N/A   Overcast
5:53 AM 16.0 °F 4.4 °F 10.9 °F 81% 30.54 in 9.0 mi NNW 9.2 mph - N/A   Overcast
6:53 AM 15.1 °F 1.1 °F 9.0 °F 77% 30.56 in 10.0 mi North 12.7 mph - N/A   Overcast
7:53 AM 15.1 °F 4.2 °F 10.0 °F 80% 30.58 in 6.0 mi NNW 8.1 mph - N/A   Haze
8:53 AM 15.1 °F 3.3 °F 10.0 °F 80% 30.59 in 5.0 mi North 9.2 mph - 0.00 in   Haze
9:22 AM 15.1 °F 5.2 °F 10.0 °F 80% 30.57 in 6.0 mi NNW 6.9 mph - N/A   Haze
9:53 AM 15.1 °F 3.3 °F 10.0 °F 80% 30.59 in 5.0 mi NNW 9.2 mph - N/A   Haze
10:53 AM 16.0 °F 3.6 °F 10.9 °F 81% 30.59 in 8.0 mi North 10.4 mph - N/A   Overcast
11:53 AM 16.0 °F 3.6 °F 10.0 °F 77% 30.57 in 9.0 mi NNW 10.4 mph - N/A   Overcast
12:53 PM 16.0 °F 3.6 °F 10.0 °F 77% 30.54 in 10.0 mi North 10.4 mph - N/A   Overcast
1:53 PM 17.1 °F 5.0 °F 12.0 °F 81% 30.51 in 3.0 mi North 10.4 mph - 0.00 in Snow Light Snow
2:30 PM 17.1 °F 5.8 °F 10.9 °F 77% 30.49 in 5.0 mi NNW 9.2 mph - 0.00 in   Haze
2:53 PM 17.1 °F 5.8 °F 10.9 °F 77% 30.51 in 6.0 mi North 9.2 mph - 0.00 in   Haze
3:53 PM 18.0 °F 11.1 °F 12.0 °F 78% 30.53 in 7.0 mi North 4.6 mph - 0.00 in   Overcast
4:53 PM 17.1 °F 10.0 °F 10.9 °F 77% 30.52 in 10.0 mi NNW 4.6 mph - N/A   Overcast
5:53 PM 17.1 °F 10.0 °F 10.0 °F 74% 30.53 in 10.0 mi North 4.6 mph - N/A   Overcast
6:53 PM 15.1 °F 4.2 °F 8.1 °F 74% 30.53 in 10.0 mi NNE 8.1 mph - N/A   Overcast
7:21 PM 12.9 °F 2.6 °F 7.0 °F 77% 30.50 in 10.0 mi NNE 6.9 mph - N/A   Scattered Clouds
7:53 PM 12.0 °F 1.5 °F 5.0 °F 73% 30.52 in 10.0 mi North 6.9 mph - N/A   Clear
8:53 PM 10.0 °F 1.8 °F 3.0 °F 73% 30.51 in 10.0 mi NNE 4.6 mph - N/A   Clear
9:53 PM 9.0 °F 0.6 °F 1.9 °F 73% 30.54 in 10.0 mi North 4.6 mph - N/A   Clear
10:53 PM 7.0 °F -3.3 °F 1.0 °F 77% 30.52 in 10.0 mi NNE 5.8 mph - N/A   Clear
11:53 PM 8.1 °F 1.4 °F 1.9 °F 76% 30.52 in 10.0 mi NE 3.5 mph - N/A   Clear